Weather History for Columbia, MO

Change the Weather History Date:

Saturday, March 2, 2013

  Actual Average Record
Temperature  
Mean Temperature 25 °F 40 °F  
Max Temperature 32 °F 50 °F 78 °F (1976)
Min Temperature 17 °F 30 °F -5 °F (1890)
Degree Days  
Heating Degree Days 40 26  
Month to date heating degree days 78 52  
Since 1 July heating degree days 3661 3998  
Cooling Degree Days 0 0  
Month to date cooling degree days 0 0  
Year to date cooling degree days 1 0  
Moisture  
Dew Point 17 °F    
Average Humidity 69    
Maximum Humidity 84    
Minimum Humidity 53    
Precipitation  
Precipitation T in 0.09 in 0.92 in (1940)
Month to date precipitation 0.01 0.17  
Year to date precipitation 6.25 4.34  
Snow  
Snow 0.00 in 0.10 in 7.20 in (1960)
Month to date snowfall 0.1 0.2  
Since 1 July snowfall 24.8 16.3  
Snow Depth 0.00 in    
Sea Level Pressure  
Sea Level Pressure 30.29 in    
Wind  
Wind Speed 9 mph (NW)    
Max Wind Speed 16 mph    
Max Gust Speed 19 mph    
Visibility 9 miles    
Events Snow    
T = Trace of Precipitation, MM = Missing Value Source: NWS Daily Summary

Daily Weather History Graph

Daily Weather History Graph

Search for Another Location

Airport:

Trip Planner

Search our weather history database for the weather conditions in past years. The results will help you decide how hot, cold, wet, or windy it might be!

Date:

Astronomy

Mar. 02, 2013 Rise Set
Actual Time 6:39 AM CST 6:03 PM CST
Civil Twilight 6:12 AM CST 6:29 PM CST
Nautical Twilight 5:41 AM CST 7:00 PM CST
Astronomical Twilight 5:11 AM CST 7:31 PM CST
Moon 11:39 PM CST (3/2) 9:11 AM CST (3/2)
Length of Visible Light 12h 17m
Length of Day
11h 23m
Waning Gibbous, 74% of the Moon is Illuminated
Mar 2
Waning Gibbous
Mar 4
Last Quarter
Mar 11
New
Mar 19
First Quarter
Mar 27
Full

Hourly Weather History & Observations

Time (CST) Temp. Windchill Dew Point Humidity Pressure Visibility Wind Dir Wind Speed Gust Speed Precip Events Conditions
12:54 AM 21.9 °F 11.7 °F 16.0 °F 78% 30.28 in 10.0 mi NNW 9.2 mph - N/A   Overcast
1:54 AM 23.0 °F 13.1 °F 18.0 °F 81% 30.28 in 6.0 mi NNW 9.2 mph - 0.00 in Snow Light Snow
2:54 AM 24.1 °F 13.1 °F 19.9 °F 84% 30.27 in 6.0 mi NNW 11.5 mph - 0.00 in   Overcast
3:54 AM 24.1 °F 13.7 °F 19.9 °F 84% 30.27 in 6.0 mi NNW 10.4 mph - 0.00 in Snow Light Snow
4:54 AM 24.8 °F 14.6 °F 19.4 °F 80% 30.24 in 10.0 mi NNW 10.4 mph - N/A   Overcast
5:54 AM 24.1 °F 13.1 °F 19.9 °F 84% 30.29 in 8.0 mi NNW 11.5 mph - N/A   Overcast
6:54 AM 24.1 °F 13.7 °F 19.0 °F 81% 30.31 in 5.0 mi NNW 10.4 mph - 0.00 in Snow Light Snow
7:54 AM 24.1 °F 13.7 °F 18.0 °F 77% 30.32 in 9.0 mi NW 10.4 mph - 0.00 in   Overcast
8:54 AM 25.0 °F 15.5 °F 18.0 °F 75% 30.33 in 10.0 mi NW 9.2 mph - N/A   Overcast
9:54 AM 27.0 °F 17.3 °F 17.1 °F 66% 30.32 in 10.0 mi NW 10.4 mph - N/A   Overcast
10:54 AM 27.0 °F 15.6 °F 15.1 °F 61% 30.34 in 10.0 mi NW 13.8 mph - N/A   Overcast
11:54 AM 28.9 °F 20.4 °F 16.0 °F 58% 30.33 in 10.0 mi NNW 9.2 mph - 0.00 in   Mostly Cloudy
12:19 PM 28.9 °F 20.4 °F 16.0 °F 58% 30.28 in 10.0 mi NNW 9.2 mph - N/A   Mostly Cloudy
12:54 PM 30.0 °F 21.1 °F 16.0 °F 56% 30.30 in 10.0 mi NNW 10.4 mph - N/A   Mostly Cloudy
1:07 PM 30.9 °F 22.2 °F 16.0 °F 54% 30.27 in 10.0 mi NW 10.4 mph - N/A   Mostly Cloudy
1:54 PM 30.9 °F 21.2 °F 17.1 °F 57% 30.29 in 10.0 mi NNW 12.7 mph - N/A   Mostly Cloudy
2:54 PM 30.9 °F 22.8 °F 16.0 °F 54% 30.28 in 10.0 mi NW 9.2 mph - N/A   Partly Cloudy
3:54 PM 30.9 °F 22.2 °F 16.0 °F 54% 30.28 in 10.0 mi NW 10.4 mph - N/A   Clear
4:54 PM 30.0 °F 21.1 °F 15.1 °F 54% 30.28 in 10.0 mi NW 10.4 mph - N/A   Clear
5:54 PM 27.0 °F 19.5 °F 15.1 °F 61% 30.28 in 10.0 mi NW 6.9 mph - N/A   Clear
6:54 PM 26.1 °F 19.4 °F 15.1 °F 63% 30.28 in 10.0 mi WNW 5.8 mph - N/A   Clear
7:54 PM 24.1 °F 17.0 °F 15.1 °F 69% 30.28 in 10.0 mi West 5.8 mph - N/A   Clear
8:54 PM 23.0 °F 18.4 °F 16.0 °F 74% 30.27 in 10.0 mi WNW 3.5 mph - N/A   Clear
9:54 PM 21.9 °F - 16.0 °F 78% 30.26 in 10.0 mi Calm Calm - N/A   Clear
10:54 PM 21.9 °F 14.5 °F 15.1 °F 75% 30.26 in 10.0 mi NW 5.8 mph - N/A   Clear
11:54 PM 19.0 °F 13.9 °F 14.0 °F 81% 30.24 in 10.0 mi WNW 3.5 mph - N/A   Clear